Tracking 19709 objects as of 17-Jun-2019
HD Live streaming from Space Station
objects crossing your sky now

DELTA 1 DEB

Track DELTA 1 DEB now!
10-day predictions


NORAD ID: 12185
Int'l Code: 1978-026AA
Perigee: 789.6 km
Apogee: 926.3 km
Inclination: 99.1 °
Period: 101.9 minutes
Semi major axis: 7228 km
RCS: 0.0609 m2 (small)
Launch date: March 5, 1978
Source: United States (US)
Launch site: AIR FORCE WESTERN TEST RANGE (AFWTR)

Note: This is SATELLITE DEBRIS
aabbcc
Your satellite tracking list
Your tracking list is empty




NASA's NSSDC Master Catalog

Two Line Element Set (TLE):
1 12185U 78026AA  19167.67748240 +.00000065 +00000-0 +58163-4 0  9990
2 12185 099.1294 062.7956 0094568 299.2506 113.0244 14.12504843967956
Source of the keplerian elements: AFSPC